[[{"header":{"parameterUnit":"m.s-1","parameterCategory":2,"la1":30.2991,"la2":30.254,"lo1":-89.0895,"lo2":-89.0444,"dy":0.0017,"dx":0.0017,"nx":28,"ny":28,"refTime":"2023-08-09T21:00:00:Z","depth":"0","parameterNumber":2,"parameterNumberName":"U-component_of_CURRENTS"},"data":[0,0,0,0,0,0,0,0,0,0,0,0,0,0,0,0,0,0,0,0,0,0,0,0,0,0,0,0,0,0,0,0,0,0,0,0,0,0,0,0,0,0,0,0,0,0,0,0,0,0,0,0,0,0,0,0,0,0,0.3431,0.3432,0,0.3498,0.3499,0.35,0.3533,0.3533,0.3533,0.3533,0.3606,0.3608,0.361,0,0,0,0,0,0,0,0,0,0,0,0,0,0.3385,0.3386,0.3431,0.3432,0.3432,0.3498,0.3499,0.35,0.3533,0.3533,0.3533,0.3533,0.3606,0.3608,0.3611,0,0,0,0,0,0,0,0,0,0,0,0,0,0.3426,0.3386,0.3431,0.3455,0.3458,0.3498,0.3499,0.35,0.3533,0.3533,0.3533,0.3532,0.3605,0.3608,0.3611,0.3637,0,0,0.3621,0.3622,0,0,0,0,0,0,0,0,0.3423,0.3428,0.3451,0.3454,0.3457,0.3505,0.351,0.3546,0.3533,0.3507,0.3533,0.3532,0.3572,0.3578,0.3594,0.364,0.3643,0.3621,0.3623,0.3624,0.3625,0,0,0,0,0,0,0,0.342,0.3425,0.346,0.3452,0.3455,0.3481,0.3486,0.3517,0.3542,0.3509,0.3511,0.3515,0.3574,0.3591,0.3596,0.3645,0.3621,0.3624,0.3626,0.3627,0.3795,0.3797,0,0,0,0,0,0,0.3405,0.3422,0.3458,0.3462,0.3436,0.3481,0.3487,0.3492,0.3542,0.3548,0.3515,0.3517,0.3586,0.3592,0.3599,0.3654,0.3624,0.3627,0.3629,0.3792,0.3795,0.3798,0,0,0,0,0,0,0.3404,0.3408,0.3455,0.3442,0.3449,0.3482,0.3487,0.3493,0.3512,0.3546,0.3553,0.3528,0.3586,0.3594,0.3644,0.3656,0.3629,0.3632,0.3789,0.3793,0.3797,0.3751,0,0,0,0,0,0,0.3402,0.3407,0.3411,0.3441,0.3449,0.3478,0.3487,0.3494,0.3514,0.3516,0.3559,0.3565,0.3586,0.3639,0.3647,0.366,0.3634,0.3786,0.3791,0.3795,0.3749,0.3752,0.3755,0,0,0,0,0,0.3401,0.3426,0.341,0.3415,0.3451,0.3478,0.3485,0.3509,0.3514,0.3525,0.3565,0.3564,0.3675,0.3643,0.3652,0.3666,0.3784,0.379,0.3795,0.3747,0.3752,0.3755,0,0,0,0,0,0,0.3441,0.3432,0.3416,0.3444,0.3449,0.3483,0.3502,0.351,0.355,0.3554,0.3586,0.3596,0.3661,0.3676,0.364,0.3738,0.3734,0.3742,0.3695,0.3699,0.3702,0.3775,0.3637,0,0,0,0,0,0.3438,0.3438,0.3436,0.346,0.3456,0.3472,0.3488,0.3496,0.3531,0.3548,0.3578,0.3627,0.3693,0.3702,0.3765,0.3791,0.3902,0.3816,0.3819,0.3821,0.3892,0.4055,0.4079,0.3817,0.3817,0.3816,0,0,0.348,0.3458,0.3474,0.3465,0.347,0.3493,0.3482,0.3503,0.3535,0.355,0.3608,0.3648,0.3714,0.3768,0.3795,0.377,0.3953,0.3828,0.3829,0.3901,0.4064,0.4089,0.4112,0.382,0.382,0.3819,0,0,0.3565,0.3517,0.3553,0.3536,0.3522,0.3513,0.3515,0.3533,0.3547,0.3588,0.3637,0.3706,0.3745,0.3824,0.3863,0.393,0.3986,0.3909,0.3949,0.4102,0.4126,0.4148,0.4308,0.4345,0.388,0.388,0.388,0,0.3634,0.3639,0.3574,0.3588,0.3586,0.3523,0.3567,0.3569,0.3607,0.3642,0.3604,0.3764,0.3801,0.3928,0.3946,0.3941,0.4028,0.3909,0.4106,0.4131,0.4154,0.4314,0.4355,0.3879,0.3879,0.3879,0.3879,0,0.3733,0.373,0.3743,0.3721,0.3705,0.3722,0.3688,0.3687,0.3668,0.3693,0.3793,0.3846,0.395,0.3948,0.3961,0.4132,0.4142,0.4107,0.4088,0.4178,0.434,0.4384,0.3876,0.3877,0.3877,0.3878,0,0,0.3951,0.3844,0.3854,0.3835,0.3766,0.3771,0.378,0.3802,0.384,0.3848,0.3945,0.4041,0.4057,0.4114,0.4128,0.4237,0.4455,0.4222,0.4231,0.4371,0.4803,0.467,0.4705,0.4421,0.4428,0.4434,0.4843,0,0.4072,0.4087,0.4008,0.4036,0.4036,0.3941,0.3952,0.3949,0.3939,0.3999,0.4054,0.415,0.4115,0.4154,0.4264,0.4415,0.4571,0.435,0.4711,0.4725,0.4584,0.4752,0.4497,0.4827,0.4887,0.4894,0.4899,0,0.4212,0.4186,0.4218,0.4141,0.4139,0.4145,0.4121,0.4128,0.4163,0.4161,0.4236,0.4268,0.4442,0.4382,0.472,0.4562,0.4723,0.4828,0.4844,0.4786,0.4674,0.4755,0.4905,0.4722,0.4967,0.4962,0.4957,0,0.4348,0.4337,0.4343,0.4321,0.424,0.425,0.4217,0.4208,0.4213,0.4287,0.4319,0.4477,0.4581,0.4781,0.4947,0.4861,0.5317,0.5225,0.5291,0.5283,0.5183,0.5152,0.5199,0.5559,0.5558,0.5557,0.5556,0,0.4467,0.449,0.4407,0.4404,0.4429,0.4348,0.4379,0.4355,0.4365,0.4398,0.4428,0.4513,0.4688,0.49,0.5051,0.53,0.542,0.5392,0.5405,0.5153,0.5116,0.5043,0.4921,0.5572,0.5569,0.5566,0.5563,0,0.4586,0.4534,0.4542,0.4485,0.4475,0.4488,0.4427,0.4437,0.4445,0.4496,0.4526,0.4631,0.4867,0.5048,0.5403,0.5444,0.5524,0.5763,0.5446,0.5412,0.5199,0.5083,0.5129,0.5001,0.591,0.591,0.5909,0,0.4634,0.4645,0.4597,0.4582,0.4554,0.4549,0.4518,0.448,0.4474,0.4558,0.4596,0.4819,0.4921,0.5343,0.5487,0.5759,0.5571,0.5667,0.5464,0.5224,0.511,0.4917,0.4792,0.534,0.5335,0.5331,0.5327,0,0.471,0.4687,0.4656,0.4625,0.4601,0.4576,0.4544,0.4541,0.4502,0.4554,0.4642,0.4745,0.5063,0.5155,0.5439,0.5565,0.5301,0.5587,0.5447,0.4783,0.4482,0.4347,0.5039,0.5291,0.5294,0.5297,0.5299,0.5301,0.4739,0.4724,0.4649,0.4625,0.4597,0.4549,0.4492,0.4474,0.4458,0.4435,0.4611,0.4648,0.4796,0.5119,0.5222,0.512,0.5145,0.4965,0.4897,0.4768,0.4457,0.5059,0.5217,0.522,0.5223,0.5225,0.5227,0,0.4703,0.4657,0.4638,0.455,0.4495,0.4505,0.4441,0.4345,0.4286,0.433,0.4378,0.4358,0.4433,0.4532,0.4553,0.4438,0.4313,0.4302,0.3977,0.3931,0.4592,0.4367,0.421,0.421,0.4211,0.4211,0.4211,0.4211,0.4657,0.4578,0.4554,0.4436,0.4394,0.4245,0.4187,0.4086,0.4049,0.3892,0.3791,0.3825,0.3916,0.3964,0.3851,0.3798,0.3535,0.3381,0.3433,0.3847,0.3902,0.3955,0.3717,0.3426,0.3425,0.263,0.2623,0.2618]},{"header":{"parameterUnit":"m.s-1","parameterCategory":2,"la1":30.2991,"la2":30.254,"lo1":-89.0895,"lo2":-89.0444,"dy":0.0017,"dx":0.0017,"nx":28,"ny":28,"refTime":"2023-08-09T21:00:00:Z","depth":"0","parameterNumber":3,"parameterNumberName":"V-component_of_CURRENTS"},"data":[0,0,0,0,0,0,0,0,0,0,0,0,0,0,0,0,0,0,0,0,0,0,0,0,0,0,0,0,0,0,0,0,0,0,0,0,0,0,0,0,0,0,0,0,0,0,0,0,0,0,0,0,0,0,0,0,0,0,-0.0119,-0.0119,0,-0.017,-0.0171,-0.0171,-0.0245,-0.0246,-0.0248,-0.0249,-0.0364,-0.0366,-0.0368,0,0,0,0,0,0,0,0,0,0,0,0,0,-0.0075,-0.0076,-0.0119,-0.0119,-0.012,-0.017,-0.0171,-0.0171,-0.0245,-0.0246,-0.0248,-0.0249,-0.0363,-0.0366,-0.0368,0,0,0,0,0,0,0,0,0,0,0,0,0,-0.0107,-0.0076,-0.0119,-0.0163,-0.0167,-0.017,-0.0171,-0.0172,-0.0244,-0.0246,-0.0248,-0.025,-0.0363,-0.0365,-0.0368,-0.0348,0,0,-0.0377,-0.0378,0,0,0,0,0,0,0,0,-0.0105,-0.0109,-0.0155,-0.016,-0.0164,-0.0203,-0.0198,-0.0234,-0.0244,-0.0215,-0.0249,-0.0251,-0.0315,-0.0321,-0.0326,-0.0353,-0.0358,-0.0377,-0.0379,-0.038,-0.0381,0,0,0,0,0,0,0,-0.0103,-0.0107,-0.0139,-0.0156,-0.0161,-0.0177,-0.0183,-0.0205,-0.0255,-0.0218,-0.0223,-0.0228,-0.0318,-0.0323,-0.033,-0.036,-0.0377,-0.0379,-0.0381,-0.0382,-0.0338,-0.0335,0,0,0,0,0,0,-0.0095,-0.0105,-0.0138,-0.0141,-0.0139,-0.0176,-0.0183,-0.0189,-0.0253,-0.0265,-0.0227,-0.0231,-0.0317,-0.0326,-0.0334,-0.0266,-0.038,-0.0383,-0.0384,-0.034,-0.0337,-0.0334,0,0,0,0,0,0,-0.0094,-0.0097,-0.0135,-0.0124,-0.013,-0.0175,-0.018,-0.0189,-0.0192,-0.0259,-0.0272,-0.0221,-0.0319,-0.033,-0.0327,-0.0273,-0.0384,-0.0386,-0.0344,-0.0339,-0.0335,-0.016,0,0,0,0,0,0,-0.0092,-0.0096,-0.0086,-0.0123,-0.013,-0.0116,-0.0179,-0.0188,-0.0193,-0.02,-0.0259,-0.0272,-0.0322,-0.0322,-0.033,-0.0279,-0.0389,-0.0347,-0.0342,-0.0337,-0.017,-0.015,-0.0134,0,0,0,0,0,-0.009,-0.0055,-0.0085,-0.0089,-0.0119,-0.0114,-0.0118,-0.0157,-0.019,-0.0171,-0.0208,-0.027,-0.0294,-0.0322,-0.0332,-0.028,-0.035,-0.0343,-0.0337,-0.0178,-0.0154,-0.0134,0,0,0,0,0,0,-0.0014,-0.0061,-0.0095,-0.0073,-0.0089,-0.0126,-0.0106,-0.0141,-0.0155,-0.0162,-0.0235,-0.0248,-0.0223,-0.0272,-0.0301,-0.025,-0.0331,-0.0326,-0.0206,-0.0185,-0.0167,-0.0119,-0.0391,0,0,0,0,0,0.0002,0.0008,-0.0036,-0.0014,-0.0019,-0.0063,-0.0064,-0.0093,-0.0115,-0.0124,-0.0163,-0.0195,-0.0201,-0.0211,-0.0229,-0.0202,-0.0213,-0.0174,-0.0156,-0.0141,-0.0106,-0.0075,-0.0051,-0.0312,-0.0312,-0.0313,0,0,0.0045,0.0016,0.0024,0.0002,-0.0014,0.0011,-0.0067,-0.0054,-0.0029,-0.0132,-0.0098,-0.0134,-0.0179,-0.0144,-0.0138,-0.0181,-0.0068,-0.0132,-0.0119,-0.0093,-0.0066,-0.004,-0.0018,-0.0308,-0.0309,-0.0309,0,0,0.0138,0.0102,0.0137,0.0129,0.0108,0.0081,0.0089,0.0059,0.0049,0.0067,0.0014,0.0028,-0.0011,-0.0005,-0.0015,0.0094,0.0027,0.007,0.0197,0.0228,0.025,0.0269,0.0308,0.033,0.0077,0.0077,0.0078,0,0.0188,0.0212,0.0156,0.019,0.0198,0.012,0.0172,0.0162,0.014,0.0161,0.0098,0.0117,0.0069,0.0147,0.0177,0.0139,0.0137,0.0117,0.0253,0.0271,0.0288,0.0323,0.0345,0.0087,0.0086,0.0085,0.0084,0,0.0294,0.032,0.035,0.0353,0.0364,0.0394,0.0363,0.038,0.0343,0.0333,0.0388,0.0339,0.0356,0.0341,0.0283,0.0391,0.0347,0.0273,0.0201,0.0325,0.0354,0.0373,0.01,0.0096,0.0094,0.0091,0,0,0.0358,0.0415,0.0418,0.0447,0.0445,0.046,0.0522,0.0555,0.0609,0.0583,0.0674,0.0657,0.0629,0.0619,0.0565,0.0582,0.069,0.0482,0.0479,0.0529,0.0768,0.0652,0.0661,0.0626,0.063,0.0633,0.0748,0,0.0445,0.0548,0.0551,0.0646,0.0685,0.0662,0.0729,0.0753,0.0754,0.0824,0.0801,0.085,0.0735,0.0751,0.0762,0.0708,0.0745,0.0667,0.0634,0.0635,0.0522,0.068,0.0607,0.0695,0.0766,0.0769,0.0771,0,0.0507,0.0569,0.0688,0.0775,0.0794,0.0847,0.0926,0.0977,0.1054,0.1066,0.112,0.1093,0.1157,0.1016,0.1029,0.0978,0.0905,0.0846,0.0848,0.0695,0.0555,0.0578,0.0726,0.0492,0.0799,0.0797,0.0795,0,0.0521,0.0642,0.074,0.0767,0.0868,0.0928,0.0976,0.1053,0.1118,0.1232,0.13,0.1346,0.1387,0.1316,0.119,0.1119,0.1183,0.1066,0.0913,0.0903,0.0815,0.0791,0.074,0.1098,0.1098,0.1098,0.1097,0,0.0563,0.0632,0.0757,0.0803,0.0918,0.0975,0.1097,0.1158,0.1286,0.1406,0.1426,0.154,0.1457,0.1463,0.1312,0.1192,0.1287,0.0991,0.0942,0.0873,0.0853,0.0618,0.0513,0.1102,0.1101,0.11,0.1099,0,0.0538,0.0626,0.0733,0.0877,0.092,0.0991,0.1138,0.1236,0.1358,0.1526,0.1579,0.1718,0.1742,0.1633,0.1557,0.1359,0.1113,0.1164,0.1093,0.1032,0.0608,0.0516,0.0475,0.0406,0.1029,0.1027,0.1026,0,0.0542,0.0596,0.0756,0.0819,0.0883,0.0999,0.1088,0.1235,0.1352,0.1629,0.1728,0.1855,0.1957,0.1826,0.1531,0.131,0.1106,0.104,0.0877,0.0625,0.0489,0.0429,0.0371,0.0853,0.085,0.0848,0.0846,0,0.0533,0.0584,0.0675,0.0812,0.0914,0.1039,0.1188,0.1302,0.1515,0.171,0.1989,0.2121,0.2025,0.1824,0.1492,0.1277,0.0861,0.0977,0.0756,0.04,0.0301,0.0195,0.0738,0.0824,0.0827,0.0828,0.0829,0.083,0.0513,0.056,0.0684,0.0804,0.0929,0.1096,0.1235,0.143,0.1677,0.2031,0.2138,0.2379,0.2026,0.1592,0.1295,0.0631,0.071,0.0384,0.032,0.0301,0.0155,0.0645,0.0623,0.0624,0.0625,0.0626,0.0626,0,0.0489,0.0558,0.0672,0.0848,0.0992,0.107,0.1323,0.151,0.1832,0.2135,0.2404,0.2315,0.185,0.1345,0.0488,0.0047,-0.0068,-0.0187,-0.0282,-0.0291,0.0176,0.0076,-0.0113,-0.0113,-0.0112,-0.0112,-0.0112,-0.0112,0.0489,0.0569,0.064,0.0869,0.1007,0.1263,0.1431,0.1718,0.1979,0.2342,0.2477,0.2553,0.2092,0.066,-0.0332,-0.0544,-0.0759,-0.0836,-0.0895,-0.0628,-0.058,-0.0535,-0.0656,-0.0995,-0.0996,-0.1346,-0.135,-0.1353]}],[{"header":{"parameterUnit":"m.s-1","parameterCategory":2,"la1":30.2991,"la2":30.254,"lo1":-89.0895,"lo2":-89.0444,"dy":0.0017,"dx":0.0017,"nx":28,"ny":28,"refTime":"2023-08-09T21:00:00:Z","depth":"2","parameterNumber":2,"parameterNumberName":"U-component_of_CURRENTS"},"data":[0,0,0,0,0,0,0,0,0,0,0,0,0,0,0,0,0,0,0,0,0,0,0,0,0,0,0,0,0,0,0,0,0,0,0,0,0,0,0,0,0,0,0,0,0,0,0,0,0,0,0,0,0,0,0,0,0,0,0.207,0.2069,0,0.206,0.206,0.206,0.206,0.206,0.2061,0.2061,0.2319,0.2326,0.2332,0,0,0,0,0,0,0,0,0,0,0,0,0,0.211,0.2109,0.207,0.2069,0.2069,0.206,0.206,0.206,0.206,0.206,0.2061,0.2061,0.2317,0.2325,0.2333,0,0,0,0,0,0,0,0,0,0,0,0,0,0.2096,0.2109,0.207,0.2068,0.2068,0.206,0.206,0.206,0.206,0.206,0.2061,0.2061,0.2314,0.2324,0.2334,0.2394,0,0,0.2365,0.237,0,0,0,0,0,0,0,0,0.2097,0.2095,0.2068,0.2068,0.2068,0.2061,0.2169,0.2185,0.206,0.2064,0.2061,0.2061,0.2257,0.2272,0.2267,0.2407,0.2418,0.2366,0.2372,0.2377,0.238,0,0,0,0,0,0,0,0.2098,0.2095,0.2066,0.2068,0.2068,0.2075,0.2073,0.2171,0.2165,0.2063,0.2063,0.2061,0.2259,0.2257,0.2274,0.2421,0.2366,0.2375,0.2381,0.2385,0.2754,0.2757,0,0,0,0,0,0,0.2096,0.2096,0.2067,0.2066,0.2082,0.2074,0.2072,0.2063,0.2158,0.2171,0.2061,0.2061,0.2239,0.2262,0.2283,0.2508,0.2377,0.2386,0.2392,0.275,0.2755,0.2758,0,0,0,0,0,0,0.2097,0.2094,0.2067,0.2081,0.2078,0.2073,0.2064,0.2063,0.2117,0.2153,0.2171,0.2121,0.224,0.2269,0.2412,0.2513,0.2391,0.24,0.2746,0.2751,0.2756,0.2864,0,0,0,0,0,0,0.2098,0.2094,0.2153,0.208,0.2077,0.212,0.2063,0.2063,0.2111,0.2113,0.2211,0.223,0.2243,0.2397,0.2422,0.2525,0.2408,0.2741,0.2748,0.2755,0.2856,0.2873,0.2887,0,0,0,0,0,0.21,0.2183,0.2156,0.2156,0.2136,0.2124,0.2126,0.2121,0.2115,0.2166,0.2215,0.223,0.2458,0.2408,0.2437,0.2545,0.2738,0.2746,0.2754,0.2849,0.2869,0.2886,0,0,0,0,0,0,0.2263,0.2188,0.2157,0.2223,0.2195,0.2125,0.2204,0.2164,0.2235,0.2267,0.2283,0.2308,0.2471,0.2494,0.2438,0.2668,0.2601,0.2615,0.2663,0.2683,0.2698,0.2742,0.2417,0,0,0,0,0,0.2312,0.2336,0.226,0.2318,0.2325,0.2269,0.2288,0.2257,0.2274,0.2305,0.2359,0.2434,0.2518,0.2588,0.2666,0.2806,0.2832,0.2891,0.2907,0.292,0.2975,0.3078,0.3108,0.2786,0.2786,0.2785,0,0,0.2378,0.2355,0.2365,0.2353,0.2346,0.2368,0.2286,0.2326,0.2354,0.2333,0.2464,0.2509,0.2568,0.2705,0.2782,0.2747,0.3019,0.293,0.2941,0.299,0.309,0.3121,0.3149,0.2791,0.279,0.2789,0,0,0.2465,0.2519,0.2529,0.2536,0.2527,0.2511,0.2533,0.2498,0.2518,0.2609,0.26,0.2712,0.2837,0.2889,0.293,0.3093,0.3097,0.3113,0.324,0.3338,0.3366,0.3391,0.343,0.3458,0.3121,0.3121,0.3121,0,0.2534,0.2531,0.2545,0.2566,0.2585,0.2583,0.2594,0.264,0.2653,0.2681,0.2687,0.2864,0.2932,0.3071,0.3129,0.3138,0.3162,0.3156,0.3359,0.3384,0.3408,0.3443,0.3472,0.3127,0.3126,0.3126,0.3125,0,0.2569,0.2613,0.2655,0.2664,0.2723,0.2749,0.2779,0.2861,0.2898,0.2896,0.3045,0.3118,0.3211,0.3255,0.3261,0.3452,0.3402,0.3361,0.3308,0.3447,0.3474,0.3502,0.3136,0.3134,0.3132,0.313,0,0,0.2505,0.2629,0.2633,0.2643,0.2758,0.2765,0.2928,0.2983,0.3046,0.3153,0.3224,0.3412,0.3432,0.3484,0.3497,0.3614,0.3802,0.3581,0.3583,0.3614,0.3988,0.3694,0.3695,0.3788,0.3794,0.3799,0.3926,0,0.2473,0.2518,0.2608,0.268,0.2698,0.2825,0.2949,0.3049,0.3147,0.3254,0.3374,0.3473,0.3518,0.3557,0.3702,0.3763,0.3889,0.3771,0.3857,0.386,0.3577,0.3724,0.3432,0.3498,0.3953,0.3958,0.3961,0,0.2395,0.2438,0.2498,0.2621,0.2645,0.2734,0.2908,0.3013,0.3226,0.331,0.3482,0.354,0.3755,0.375,0.4012,0.3927,0.401,0.4063,0.4067,0.3788,0.362,0.3443,0.3532,0.4008,0.4004,0.4001,0.3998,0,0.2239,0.2333,0.2378,0.2425,0.2605,0.268,0.28,0.3019,0.3107,0.3353,0.3431,0.3664,0.3762,0.3952,0.4088,0.4067,0.4327,0.4281,0.4103,0.4079,0.385,0.3793,0.4508,0.4508,0.4508,0.4508,0.4507,0,0.2136,0.2155,0.2306,0.2333,0.2391,0.2571,0.2685,0.2857,0.3083,0.3206,0.3438,0.3561,0.3829,0.3976,0.4122,0.418,0.4357,0.4174,0.4119,0.3868,0.3814,0.4271,0.4242,0.4512,0.4511,0.451,0.451,0,0.1997,0.209,0.2126,0.2285,0.2329,0.239,0.2607,0.2685,0.2939,0.3117,0.3196,0.3504,0.3731,0.392,0.4194,0.4149,0.4267,0.4245,0.3893,0.3793,0.395,0.3926,0.4073,0.4064,0.4057,0.4051,0.4045,0,0.1947,0.1957,0.2071,0.2083,0.2166,0.2272,0.2348,0.2607,0.2716,0.3073,0.3138,0.3402,0.3599,0.3828,0.3822,0.3938,0.4164,0.3666,0.3581,0.3987,0.3921,0.3907,0.3893,0.3333,0.3322,0.3314,0.3307,0,0.1863,0.1913,0.1955,0.1964,0.2016,0.2082,0.2222,0.2292,0.2613,0.2776,0.3052,0.3236,0.3416,0.3394,0.3433,0.3471,0.361,0.3478,0.4076,0.3428,0.3283,0.3217,0.3231,0.3229,0.3237,0.3243,0.3247,0.325,0.1808,0.181,0.1852,0.1851,0.1882,0.1933,0.2026,0.2171,0.2351,0.2641,0.2817,0.3017,0.3029,0.2964,0.2921,0.2869,0.3097,0.3015,0.3047,0.3088,0.2919,0.2763,0.258,0.2584,0.2588,0.259,0.2593,0,0.1751,0.1765,0.1734,0.1745,0.1735,0.1822,0.1966,0.2065,0.2274,0.2433,0.2638,0.2416,0.2399,0.2533,0.2281,0.2179,0.2235,0.217,0.2266,0.2339,0.2406,0.221,0.168,0.1678,0.1676,0.1674,0,0,0.1718,0.1704,0.1674,0.1614,0.1647,0.1763,0.1887,0.1991,0.212,0.2173,0.2223,0.2341,0.2419,0.2001,0.1903,0.18,0.2089,0.1743,0.2468,0.2657,0.2723,0.2865,0.2638,0,0,0,0,0]},{"header":{"parameterUnit":"m.s-1","parameterCategory":2,"la1":30.2991,"la2":30.254,"lo1":-89.0895,"lo2":-89.0444,"dy":0.0017,"dx":0.0017,"nx":28,"ny":28,"refTime":"2023-08-09T21:00:00:Z","depth":"2","parameterNumber":3,"parameterNumberName":"V-component_of_CURRENTS"},"data":[0,0,0,0,0,0,0,0,0,0,0,0,0,0,0,0,0,0,0,0,0,0,0,0,0,0,0,0,0,0,0,0,0,0,0,0,0,0,0,0,0,0,0,0,0,0,0,0,0,0,0,0,0,0,0,0,0,0,-0.0263,-0.0264,0,-0.0294,-0.0294,-0.0294,-0.0379,-0.0381,-0.0383,-0.0384,-0.0556,-0.0558,-0.0561,0,0,0,0,0,0,0,0,0,0,0,0,0,-0.0252,-0.0252,-0.0263,-0.0264,-0.0264,-0.0293,-0.0294,-0.0294,-0.0379,-0.0381,-0.0383,-0.0385,-0.0555,-0.0558,-0.0561,0,0,0,0,0,0,0,0,0,0,0,0,0,-0.0267,-0.0252,-0.0263,-0.031,-0.0314,-0.0293,-0.0294,-0.0294,-0.0378,-0.0381,-0.0384,-0.0386,-0.0554,-0.0558,-0.0562,-0.0533,0,0,-0.0575,-0.0577,0,0,0,0,0,0,0,0,-0.0266,-0.0267,-0.0303,-0.0307,-0.0312,-0.0335,-0.0353,-0.0381,-0.0377,-0.0354,-0.0384,-0.0388,-0.0493,-0.0502,-0.05,-0.0541,-0.0548,-0.0575,-0.0578,-0.058,-0.0581,0,0,0,0,0,0,0,-0.0265,-0.0266,-0.0275,-0.0303,-0.0308,-0.032,-0.0325,-0.0358,-0.041,-0.0356,-0.0362,-0.0365,-0.0497,-0.0495,-0.0505,-0.055,-0.0575,-0.0579,-0.0582,-0.0583,-0.0624,-0.0622,0,0,0,0,0,0,-0.0259,-0.0265,-0.0274,-0.0276,-0.0295,-0.0318,-0.0324,-0.0325,-0.0407,-0.0421,-0.0363,-0.0369,-0.0487,-0.05,-0.0511,-0.0493,-0.058,-0.0584,-0.0586,-0.0625,-0.0623,-0.0622,0,0,0,0,0,0,-0.0259,-0.026,-0.0273,-0.0272,-0.0274,-0.0316,-0.0315,-0.0324,-0.0346,-0.041,-0.0428,-0.0379,-0.0489,-0.0505,-0.0536,-0.0501,-0.0586,-0.0589,-0.0627,-0.0625,-0.0623,-0.045,0,0,0,0,0,0,-0.0258,-0.0259,-0.0265,-0.0271,-0.0274,-0.0266,-0.0313,-0.0323,-0.0342,-0.0352,-0.043,-0.0447,-0.0493,-0.0529,-0.054,-0.0508,-0.0593,-0.0629,-0.0626,-0.0623,-0.0458,-0.0442,-0.0429,0,0,0,0,0,-0.0258,-0.0254,-0.0265,-0.0267,-0.0279,-0.0265,-0.0267,-0.0306,-0.0341,-0.0339,-0.0384,-0.0446,-0.0521,-0.0531,-0.0544,-0.0513,-0.063,-0.0627,-0.0623,-0.0464,-0.0445,-0.0429,0,0,0,0,0,0,-0.0269,-0.0262,-0.0275,-0.0275,-0.0272,-0.028,-0.028,-0.0305,-0.0335,-0.0351,-0.0422,-0.044,-0.0455,-0.0508,-0.0518,-0.0518,-0.0588,-0.0587,-0.0462,-0.0445,-0.0431,-0.0386,-0.0596,0,0,0,0,0,-0.0266,-0.0251,-0.0254,-0.0252,-0.0246,-0.0262,-0.0266,-0.0286,-0.0308,-0.0325,-0.037,-0.0418,-0.0443,-0.0466,-0.0502,-0.0497,-0.0546,-0.049,-0.0475,-0.0463,-0.0436,-0.0458,-0.0443,-0.0611,-0.0611,-0.0611,0,0,-0.0271,-0.0263,-0.0259,-0.025,-0.0249,-0.0217,-0.0272,-0.0267,-0.0245,-0.0338,-0.0329,-0.0373,-0.0433,-0.0423,-0.0435,-0.0468,-0.0446,-0.0458,-0.0447,-0.0427,-0.0453,-0.0436,-0.0422,-0.0609,-0.0609,-0.0609,0,0,-0.0256,-0.0259,-0.0239,-0.0219,-0.0208,-0.0198,-0.0197,-0.0199,-0.021,-0.0196,-0.0255,-0.0261,-0.0315,-0.0323,-0.0341,-0.027,-0.0371,-0.0307,-0.0193,-0.0214,-0.02,-0.0188,-0.0245,-0.024,-0.0297,-0.0297,-0.0296,0,-0.0272,-0.0238,-0.0232,-0.0197,-0.0173,-0.0184,-0.0148,-0.0137,-0.0151,-0.014,-0.018,-0.02,-0.025,-0.0219,-0.0188,-0.0232,-0.0286,-0.0249,-0.0192,-0.0182,-0.0172,-0.0234,-0.023,-0.0288,-0.0289,-0.029,-0.0291,0,-0.0232,-0.0202,-0.018,-0.0126,-0.0097,-0.0066,-0.0038,-0.0015,-0.0021,-0.0013,0.0007,-0.0031,-0.004,-0.0056,-0.0096,-0.005,-0.0125,-0.0172,-0.0228,-0.0144,-0.0216,-0.0215,-0.0275,-0.0279,-0.0281,-0.0283,0,0,-0.027,-0.0177,-0.0169,-0.0121,-0.0057,-0.0023,0.0042,0.0097,0.014,0.0143,0.0192,0.019,0.017,0.015,0.0099,0.0094,0.0117,0.0001,-0.0004,-0.004,0.0035,-0.0043,-0.0051,0.007,0.0071,0.0073,-0.0048,0,-0.0246,-0.0159,-0.0121,-0.0022,0.0038,0.0076,0.0143,0.0196,0.0228,0.0278,0.0271,0.0293,0.0246,0.0245,0.0245,0.0138,0.013,0.0152,-0.0054,-0.006,-0.0125,-0.0047,-0.0021,-0.0128,-0.0047,-0.0047,-0.0047,0,-0.0208,-0.0149,-0.0058,0.006,0.0085,0.0139,0.0255,0.031,0.0388,0.0412,0.0457,0.0435,0.0456,0.0391,0.0304,0.0309,0.0205,0.0122,0.0113,-0.0011,-0.0133,-0.0197,-0.013,-0.0046,-0.0047,-0.0047,-0.0047,0,-0.0187,-0.0093,-0.0015,0.0025,0.0145,0.0188,0.0249,0.0346,0.0414,0.0498,0.0555,0.0556,0.056,0.0459,0.0319,0.0301,0.0188,0.0129,-0.0036,-0.0047,-0.0088,-0.0103,0.0081,0.0082,0.0082,0.0082,0.0082,0,-0.0135,-0.0063,-0.0006,0.0052,0.0154,0.0214,0.0328,0.04,0.0494,0.0624,0.0623,0.0725,0.0579,0.0506,0.0355,0.0168,0.0215,0.0007,-0.0062,-0.0032,-0.004,-0.0021,-0.0031,0.0078,0.0079,0.0079,0.008,0,-0.0057,-0.0037,0.007,0.0155,0.0182,0.0266,0.039,0.0493,0.0558,0.0726,0.0763,0.0825,0.0765,0.0577,0.0396,0.0212,0.0032,-0.005,-0.0022,-0.0084,-0.0206,-0.0206,-0.0247,-0.0251,-0.0253,-0.0256,-0.0258,0,0.0013,0.0063,0.0151,0.0211,0.0257,0.0361,0.0462,0.0538,0.0667,0.0832,0.0945,0.092,0.1002,0.0672,0.0336,0.0019,0.0016,-0.0205,-0.0214,-0.0166,-0.023,-0.0226,-0.0222,-0.0217,-0.0219,-0.022,-0.0221,0,0.0151,0.0157,0.0244,0.0361,0.0452,0.0589,0.0725,0.0827,0.0968,0.1099,0.1317,0.137,0.1067,0.0777,0.0274,0.0075,-0.0158,-0.0243,-0.0176,-0.0139,-0.0147,-0.0208,-0.0203,-0.0232,-0.0231,-0.023,-0.0229,-0.0229,0.0251,0.0333,0.0419,0.0551,0.0659,0.086,0.1003,0.1164,0.1386,0.1586,0.1563,0.1581,0.1137,0.0525,0.0182,-0.0207,-0.0212,-0.0373,-0.0364,-0.0356,-0.0331,-0.0344,-0.0463,-0.0463,-0.0463,-0.0463,-0.0464,0,0.0374,0.0458,0.0608,0.0772,0.0947,0.0963,0.1221,0.1387,0.1672,0.1741,0.1833,0.1409,0.1034,0.0604,0.0006,-0.0375,-0.0347,-0.0452,-0.0349,-0.034,-0.0331,-0.03,-0.0426,-0.0426,-0.0426,-0.0426,0,0,0.045,0.06,0.0698,0.1014,0.1123,0.1374,0.1535,0.1766,0.1867,0.1965,0.1863,0.161,0.1075,0.0617,0.0148,-0.0114,-0.0119,-0.015,-0.0157,0.0028,0.0043,-0.0282,-0.0225,0,0,0,0,0]}],[{"header":{"parameterUnit":"m.s-1","parameterCategory":2,"la1":30.2991,"la2":30.254,"lo1":-89.0895,"lo2":-89.0444,"dy":0.0017,"dx":0.0017,"nx":28,"ny":28,"refTime":"2023-08-09T21:00:00:Z","depth":"4","parameterNumber":2,"parameterNumberName":"U-component_of_CURRENTS"},"data":[0,0,0,0,0,0,0,0,0,0,0,0,0,0,0,0,0,0,0,0,0,0,0,0,0,0,0,0,0,0,0,0,0,0,0,0,0,0,0,0,0,0,0,0,0,0,0,0,0,0,0,0,0,0,0,0,0,0,0.035,0.0351,0,0.0471,0.0472,0.0474,0.0569,0.0569,0.057,0.057,0.0694,0.0696,0.0699,0,0,0,0,0,0,0,0,0,0,0,0,0,0.0236,0.0238,0.035,0.0352,0.0353,0.0471,0.0472,0.0474,0.0568,0.0569,0.057,0.0571,0.0693,0.0696,0.0699,0,0,0,0,0,0,0,0,0,0,0,0,0,0.0317,0.0238,0.035,0.0411,0.0418,0.047,0.0473,0.0475,0.0568,0.0569,0.057,0.0571,0.0692,0.0696,0.07,0.0706,0,0,0.0712,0.0714,0,0,0,0,0,0,0,0,0.0312,0.0321,0.0401,0.0407,0.0415,0.0503,0.0477,0.0551,0.0568,0.0515,0.057,0.0571,0.0627,0.0637,0.0662,0.0711,0.0717,0.0712,0.0715,0.0716,0.0718,0,0,0,0,0,0,0,0.0306,0.0317,0.0401,0.0402,0.0411,0.0444,0.0457,0.0492,0.0567,0.0519,0.0526,0.0534,0.0632,0.0658,0.0665,0.0718,0.0712,0.0716,0.0718,0.072,0.0803,0.0803,0,0,0,0,0,0,0.0282,0.0311,0.0397,0.0405,0.0361,0.0445,0.046,0.0476,0.0566,0.058,0.0533,0.0538,0.065,0.066,0.067,0.0738,0.0716,0.072,0.0722,0.0803,0.0803,0.0803,0,0,0,0,0,0,0.028,0.0289,0.0392,0.0358,0.0373,0.0446,0.0464,0.0478,0.0567,0.0576,0.0591,0.0614,0.0651,0.0664,0.0734,0.0741,0.0722,0.0726,0.0804,0.0803,0.0803,0.0838,0,0,0,0,0,0,0.0276,0.0288,0.0304,0.0356,0.0374,0.0462,0.0463,0.0479,0.0565,0.0574,0.0649,0.0658,0.0653,0.0728,0.0738,0.0746,0.0729,0.0804,0.0804,0.0803,0.0837,0.0839,0.084,0,0,0,0,0,0.0272,0.0292,0.0304,0.0315,0.0389,0.0464,0.0479,0.0534,0.0568,0.0618,0.0654,0.0659,0.0731,0.0733,0.0744,0.0753,0.0804,0.0804,0.0803,0.0836,0.0838,0.084,0,0,0,0,0,0,0.0253,0.0305,0.0319,0.0355,0.0419,0.048,0.0524,0.0574,0.0646,0.0667,0.0683,0.0694,0.0743,0.0749,0.0751,0.077,0.0758,0.076,0.0779,0.0781,0.0783,0.0826,0.0732,0,0,0,0,0,0.0251,0.0287,0.0341,0.0378,0.0409,0.0482,0.0525,0.0576,0.0635,0.0674,0.0711,0.0734,0.074,0.0768,0.0777,0.0819,0.0806,0.082,0.0822,0.0824,0.0863,0.0823,0.0826,0.0801,0.0801,0.0802,0,0,0.025,0.0287,0.0305,0.0378,0.0429,0.0488,0.0514,0.0606,0.0659,0.0671,0.0756,0.0757,0.0752,0.0774,0.0795,0.0793,0.0819,0.0823,0.0825,0.0864,0.0823,0.0826,0.0828,0.0801,0.0801,0.0801,0,0,0.0273,0.0307,0.0346,0.0402,0.0491,0.0534,0.0577,0.0666,0.0713,0.0787,0.078,0.08,0.0841,0.0821,0.0816,0.0841,0.0826,0.0834,0.0892,0.0852,0.0854,0.0856,0.0828,0.0827,0.0839,0.0839,0.0839,0,0.0273,0.0328,0.0374,0.0431,0.0478,0.0562,0.0627,0.0682,0.0783,0.0812,0.0821,0.0854,0.0853,0.0859,0.086,0.0848,0.0833,0.0886,0.0856,0.0858,0.0859,0.0829,0.0828,0.0841,0.0841,0.0841,0.084,0,0.0322,0.0376,0.0412,0.05,0.0557,0.0639,0.0705,0.0774,0.0833,0.0872,0.0918,0.0909,0.0935,0.0907,0.0904,0.0906,0.0894,0.0858,0.0856,0.0864,0.0831,0.083,0.0843,0.0843,0.0842,0.0842,0,0,0.031,0.0421,0.044,0.0493,0.0608,0.0668,0.0743,0.0829,0.0885,0.0944,0.0993,0.0991,0.1013,0.1009,0.0987,0.0958,0.0939,0.0935,0.0932,0.0918,0.0869,0.0863,0.0859,0.09,0.0901,0.0901,0.0837,0,0.0348,0.045,0.0495,0.0607,0.0672,0.0746,0.0803,0.0886,0.0944,0.1005,0.1008,0.105,0.1041,0.106,0.1034,0.0965,0.0941,0.0962,0.0857,0.0855,0.0856,0.0859,0.0902,0.0835,0.0835,0.0835,0.0834,0,0.0387,0.0456,0.0555,0.0668,0.0701,0.077,0.0881,0.0946,0.1025,0.107,0.1121,0.1139,0.1151,0.112,0.1048,0.1068,0.1,0.0931,0.0925,0.0919,0.0846,0.0827,0.0831,0.0831,0.0831,0.0831,0.0832,0,0.0372,0.0501,0.0581,0.0625,0.0753,0.0806,0.0882,0.0972,0.1033,0.113,0.1181,0.1199,0.1219,0.1145,0.1054,0.106,0.0934,0.0905,0.0832,0.083,0.084,0.0838,0.0848,0.0848,0.0848,0.0849,0.0849,0,0.0393,0.0463,0.0588,0.0635,0.0739,0.0822,0.0922,0.0999,0.1093,0.1142,0.1233,0.1224,0.123,0.1167,0.1068,0.0955,0.0947,0.0867,0.082,0.0852,0.0853,0.0837,0.0836,0.0846,0.0847,0.0847,0.0848,0,0.0359,0.0443,0.0547,0.0686,0.0736,0.0815,0.0962,0.1019,0.1129,0.1191,0.1236,0.1272,0.1199,0.1166,0.1022,0.0979,0.0848,0.0796,0.0849,0.0801,0.0774,0.0775,0.0748,0.0747,0.0747,0.0746,0.0746,0,0.0358,0.0397,0.0564,0.0636,0.0707,0.0831,0.0901,0.1031,0.1072,0.1151,0.1145,0.1164,0.1162,0.0981,0.092,0.0807,0.0774,0.0757,0.0786,0.081,0.0767,0.0769,0.0772,0.0745,0.0745,0.0745,0.0745,0,0.0325,0.0377,0.0457,0.0613,0.0716,0.0817,0.0915,0.0918,0.102,0.1138,0.1085,0.1073,0.0999,0.0915,0.0882,0.0755,0.0807,0.0752,0.0753,0.078,0.0806,0.0764,0.0767,0.0743,0.0743,0.0744,0.0744,0,0.0294,0.0336,0.0443,0.0589,0.071,0.0761,0.0811,0.085,0.091,0.0998,0.0921,0.0913,0.0941,0.0875,0.0759,0.0749,0.0744,0.0748,0.0749,0.0751,0.0784,0.0819,0.0737,0,0,0,0,0,0.0262,0.03,0.0415,0.0548,0.0661,0.0721,0.0807,0.0833,0.0877,0.0852,0.0919,0.0842,0.08,0.0739,0.0723,0.0714,0.0711,0.0693,0.0708,0.0734,0.0736,0.0776,0,0,0,0,0,0,0.0242,0.0305,0.0387,0.0499,0.0548,0.0642,0.0667,0.0689,0.0676,0.0735,0.0691,0.0825,0.0746,0.08,0.0708,0.0707,0.0714,0.0713,0.0713,0.0732,0.0734,0.0736,0.0778,0,0,0,0,0]},{"header":{"parameterUnit":"m.s-1","parameterCategory":2,"la1":30.2991,"la2":30.254,"lo1":-89.0895,"lo2":-89.0444,"dy":0.0017,"dx":0.0017,"nx":28,"ny":28,"refTime":"2023-08-09T21:00:00:Z","depth":"4","parameterNumber":3,"parameterNumberName":"V-component_of_CURRENTS"},"data":[0,0,0,0,0,0,0,0,0,0,0,0,0,0,0,0,0,0,0,0,0,0,0,0,0,0,0,0,0,0,0,0,0,0,0,0,0,0,0,0,0,0,0,0,0,0,0,0,0,0,0,0,0,0,0,0,0,0,0.0221,0.0221,0,0.0175,0.0174,0.0174,0.0183,0.0184,0.0185,0.0186,0.015,0.0148,0.0146,0,0,0,0,0,0,0,0,0,0,0,0,0,0.0265,0.0265,0.0221,0.0221,0.022,0.0175,0.0174,0.0174,0.0183,0.0184,0.0185,0.0186,0.015,0.0148,0.0146,0,0,0,0,0,0,0,0,0,0,0,0,0,0.0234,0.0265,0.0221,0.0221,0.0221,0.0175,0.0174,0.0173,0.0183,0.0184,0.0186,0.0187,0.0151,0.0148,0.0146,0.0098,0,0,0.0137,0.0136,0,0,0,0,0,0,0,0,0.0236,0.0232,0.0221,0.0221,0.0221,0.0188,0.0177,0.0149,0.0182,0.0195,0.0186,0.0188,0.0163,0.016,0.0145,0.0096,0.0094,0.0137,0.0135,0.0134,0.0133,0,0,0,0,0,0,0,0.0238,0.0234,0.0201,0.0221,0.022,0.0205,0.0203,0.0171,0.017,0.0194,0.0195,0.0192,0.0163,0.0148,0.0144,0.0094,0.0137,0.0134,0.0132,0.0131,0.0003,0.0001,0,0,0,0,0,0,0.0248,0.0236,0.0203,0.02,0.0234,0.0204,0.0201,0.0195,0.017,0.0168,0.0191,0.0193,0.0152,0.0148,0.0143,0.0092,0.0134,0.0131,0.0129,0.0005,0.0003,0.0001,0,0,0,0,0,0,0.0249,0.0245,0.0205,0.0219,0.0213,0.0202,0.0195,0.0194,0.0202,0.0168,0.0167,0.0204,0.0153,0.0147,0.011,0.0091,0.013,0.0127,0.0007,0.0004,0.0002,-0.0014,0,0,0,0,0,0,0.025,0.0246,0.0246,0.0219,0.0212,0.018,0.0194,0.0192,0.0197,0.0199,0.0178,0.0175,0.0154,0.0114,0.0107,0.0088,0.0125,0.0009,0.0005,0.0002,-0.0011,-0.0016,-0.0021,0,0,0,0,0,0.0252,0.0237,0.0246,0.0242,0.0212,0.0179,0.0174,0.017,0.0196,0.0186,0.0168,0.0177,0.0089,0.011,0.0102,0.0082,0.001,0.0006,0.0003,-0.0009,-0.0015,-0.0021,0,0,0,0,0,0,0.0246,0.0236,0.0245,0.0227,0.021,0.0182,0.0173,0.0181,0.016,0.0172,0.0153,0.0146,0.0101,0.0092,0.0116,0.0033,0.0052,0.0046,0.0046,0.0039,0.0035,0.0034,0.0122,0,0,0,0,0,0.0248,0.0246,0.0226,0.0215,0.0208,0.0199,0.019,0.0192,0.017,0.0165,0.0145,0.0119,0.0073,0.0061,0.0019,-0.002,-0.005,-0.004,-0.0045,-0.0049,-0.0057,-0.0148,-0.0162,-0.0012,-0.0012,-0.0012,0,0,0.0249,0.0239,0.0242,0.0216,0.0206,0.0176,0.0197,0.0187,0.0162,0.0162,0.0122,0.0099,0.0056,0.0001,-0.0018,-0.0002,-0.0103,-0.0053,-0.0056,-0.0062,-0.0153,-0.0168,-0.0181,-0.0014,-0.0014,-0.0013,0,0,0.0238,0.0236,0.023,0.0208,0.0195,0.0177,0.0182,0.016,0.0151,0.0114,0.0095,0.0054,0.0011,-0.0045,-0.0072,-0.0131,-0.0132,-0.0124,-0.0142,-0.0231,-0.0244,-0.0256,-0.0288,-0.0303,-0.0119,-0.0119,-0.0119,0,0.0248,0.0227,0.022,0.0194,0.0176,0.0179,0.0156,0.0129,0.0098,0.0078,0.0102,0.0001,-0.0025,-0.0118,-0.0131,-0.0145,-0.0166,-0.0111,-0.0237,-0.025,-0.0262,-0.0293,-0.0309,-0.012,-0.012,-0.012,-0.012,0,0.0224,0.0205,0.0193,0.0165,0.0135,0.012,0.0081,0.006,0.0064,0.0037,-0.0029,-0.0076,-0.0124,-0.0148,-0.0151,-0.0248,-0.0225,-0.0238,-0.0218,-0.0278,-0.0306,-0.0322,-0.0122,-0.0121,-0.0121,-0.0121,0,0,0.0277,0.0199,0.0204,0.0176,0.0126,0.0102,0.0046,-0.0005,-0.003,-0.0067,-0.0117,-0.0196,-0.0187,-0.022,-0.0237,-0.0311,-0.0401,-0.0292,-0.0296,-0.0315,-0.0551,-0.0441,-0.0448,-0.0426,-0.043,-0.0433,-0.0527,0,0.0277,0.0232,0.0183,0.0132,0.0102,0.0058,0.0003,-0.0047,-0.0078,-0.0133,-0.0191,-0.0232,-0.0225,-0.0221,-0.0306,-0.039,-0.0449,-0.0372,-0.0498,-0.0501,-0.039,-0.0466,-0.0444,-0.0539,-0.0543,-0.0546,-0.0548,0,0.029,0.025,0.0215,0.0118,0.0103,0.008,0.0012,-0.0035,-0.0125,-0.0146,-0.0203,-0.0242,-0.0345,-0.0319,-0.0498,-0.044,-0.0484,-0.0548,-0.0554,-0.046,-0.0423,-0.0476,-0.0578,-0.0576,-0.0573,-0.0571,-0.057,0,0.0357,0.0273,0.0254,0.0225,0.012,0.011,0.0078,-0.0005,-0.0043,-0.0118,-0.0148,-0.0281,-0.032,-0.0442,-0.0524,-0.0518,-0.0711,-0.0728,-0.0676,-0.0667,-0.0728,-0.0715,-0.0853,-0.0852,-0.0852,-0.0852,-0.0852,0,0.0371,0.0346,0.0304,0.0289,0.0267,0.0187,0.0169,0.0113,0.0036,-0.0029,-0.0107,-0.0186,-0.0353,-0.047,-0.0553,-0.0645,-0.0728,-0.0694,-0.0701,-0.0727,-0.0713,-0.0738,-0.0723,-0.0855,-0.0855,-0.0854,-0.0853,0,0.0408,0.0388,0.036,0.0304,0.0305,0.0306,0.026,0.0214,0.0166,0.0079,0.0064,-0.0123,-0.0271,-0.0407,-0.0612,-0.0654,-0.0769,-0.0764,-0.0742,-0.0743,-0.0664,-0.0649,-0.0769,-0.0766,-0.0764,-0.0762,-0.0761,0,0.0386,0.0405,0.0414,0.0424,0.0411,0.0413,0.039,0.0321,0.0251,0.0104,0.0031,-0.0101,-0.0221,-0.0417,-0.0566,-0.0703,-0.07,-0.0744,-0.0752,-0.0669,-0.0664,-0.0653,-0.0642,-0.0757,-0.0756,-0.0756,-0.0755,0,0.0347,0.0414,0.0392,0.0462,0.0474,0.0427,0.0393,0.0353,0.0227,0.0199,0.0036,-0.0072,-0.0231,-0.0404,-0.0462,-0.0578,-0.073,-0.0721,-0.0727,-0.0736,-0.0656,-0.065,-0.0642,-0.0747,-0.0748,-0.0749,-0.075,0,0.0333,0.0341,0.0397,0.0439,0.0475,0.0415,0.0386,0.0287,0.0229,0.0081,0.0029,-0.0121,-0.0216,-0.0338,-0.0431,-0.0489,-0.0529,-0.0558,-0.0574,-0.0585,-0.0487,-0.0355,-0.0377,0,0,0,0,0,0.03,0.032,0.0352,0.0358,0.0406,0.0415,0.0348,0.0288,0.0202,0.0115,0.0082,-0.0045,-0.0184,-0.0287,-0.0326,-0.0424,-0.0563,-0.0474,-0.061,-0.0703,-0.0712,-0.0618,0,0,0,0,0,0,0.0261,0.0307,0.0327,0.0319,0.0324,0.0296,0.0265,0.0174,0.0115,0.0065,-0.0008,-0.0018,-0.0162,-0.0129,-0.0309,-0.0337,-0.0423,-0.0534,-0.0535,-0.0697,-0.0706,-0.0713,-0.062,0,0,0,0,0]}]]